Time,TemperatureF,DewpointF,PressureIn,WindDirection,WindDirectionDegrees,WindSpeedMPH,WindSpeedGustMPH,Humidity,HourlyPrecipIn,Conditions,Clouds,dailyrainin,SoftwareType,DateUTC
2013-06-23 00:01:00,73.2,69.8,29.95,SE,129,0.0,0.0,89,0.00,RA,,0.00,WeatherDisplay:10.37,2013-06-23 05:01:00,
2013-06-23 00:06:00,73.1,69.7,29.96,ESE,102,0.3,1.1,89,0.00,RA,,0.00,WeatherDisplay:10.37,2013-06-23 05:06:00,
2013-06-23 00:11:00,73.1,70.0,29.96,ESE,108,0.0,0.0,90,0.00,,,0.00,WeatherDisplay:10.37,2013-06-23 05:11:00,
2013-06-23 00:16:00,72.9,69.8,29.96,East,93,0.2,1.1,90,0.00,,,0.00,WeatherDisplay:10.37,2013-06-23 05:16:00,
2013-06-23 00:21:00,72.9,69.8,29.96,ENE,72,0.4,1.1,90,0.00,,,0.00,WeatherDisplay:10.37,2013-06-23 05:21:00,
2013-06-23 00:26:00,72.9,69.8,29.96,East,91,1.7,3.5,90,0.00,,,0.00,WeatherDisplay:10.37,2013-06-23 05:26:00,
2013-06-23 00:31:00,72.9,69.5,29.95,East,85,1.4,3.5,89,0.00,,,0.00,WeatherDisplay:10.37,2013-06-23 05:31:00,
2013-06-23 00:36:00,72.9,69.8,29.95,East,95,0.9,3.5,90,0.00,,,0.00,WeatherDisplay:10.37,2013-06-23 05:36:00,
2013-06-23 00:41:00,72.8,69.4,29.95,East,98,0.6,2.3,89,0.00,,,0.00,WeatherDisplay:10.37,2013-06-23 05:41:00,
2013-06-23 00:46:00,72.8,69.7,29.95,ENE,75,1.3,4.6,90,0.00,,,0.00,WeatherDisplay:10.37,2013-06-23 05:46:00,
2013-06-23 00:51:00,72.8,69.7,29.95,ESE,120,0.6,2.3,90,0.00,,,0.00,WeatherDisplay:10.37,2013-06-23 05:51:00,
2013-06-23 00:56:00,72.7,69.6,29.95,ESE,106,1.5,3.5,90,0.00,,,0.00,WeatherDisplay:10.37,2013-06-23 05:56:00,
2013-06-23 01:01:00,72.6,69.5,29.95,SE,125,0.0,0.0,90,0.00,,,0.00,WeatherDisplay:10.37,2013-06-23 06:01:00,
2013-06-23 01:06:00,72.5,69.4,29.95,SE,143,0.8,1.1,90,0.00,,,0.00,WeatherDisplay:10.37,2013-06-23 06:06:00,
2013-06-23 01:11:00,72.4,69.3,29.95,SE,127,0.1,1.1,90,0.00,,,0.00,WeatherDisplay:10.37,2013-06-23 06:11:00,
2013-06-23 01:16:00,72.2,69.4,29.95,East,99,0.2,2.0,91,0.00,,,0.00,WeatherDisplay:10.37,2013-06-23 06:16:00,
2013-06-23 01:21:00,72.0,69.2,29.94,ENE,77,0.0,0.0,91,0.00,,,0.00,WeatherDisplay:10.37,2013-06-23 06:21:00,
2013-06-23 01:26:00,71.9,69.1,29.95,East,91,0.2,1.1,91,0.00,,,0.00,WeatherDisplay:10.37,2013-06-23 06:26:00,
2013-06-23 01:31:00,71.8,69.0,29.94,East,82,0.0,1.1,91,0.00,,,0.00,WeatherDisplay:10.37,2013-06-23 06:31:00,
2013-06-23 01:36:00,71.7,68.9,29.94,SE,136,0.0,0.0,91,0.00,,,0.00,WeatherDisplay:10.37,2013-06-23 06:36:00,
2013-06-23 01:41:00,71.5,68.7,29.94,SW,222,0.0,0.0,91,0.00,,,0.00,WeatherDisplay:10.37,2013-06-23 06:41:00,
2013-06-23 01:46:00,71.4,69.0,29.94,SSE,156,0.2,2.3,92,0.00,,,0.00,WeatherDisplay:10.37,2013-06-23 06:46:00,
2013-06-23 01:51:00,71.4,69.0,29.94,ENE,71,0.2,2.3,92,0.00,,,0.00,WeatherDisplay:10.37,2013-06-23 06:51:00,
2013-06-23 01:56:00,71.4,69.0,29.94,ENE,71,0.0,1.1,92,0.00,,,0.00,WeatherDisplay:10.37,2013-06-23 06:56:00,
2013-06-23 02:01:00,71.3,68.9,29.94,SE,132,0.3,2.3,92,0.00,,,0.00,WeatherDisplay:10.37,2013-06-23 07:01:00,
2013-06-23 02:06:00,71.2,68.8,29.94,SE,139,0.1,1.1,92,0.00,,,0.00,WeatherDisplay:10.37,2013-06-23 07:06:00,
2013-06-23 02:11:00,71.1,68.7,29.94,WSW,250,0.0,0.0,92,0.00,,,0.00,WeatherDisplay:10.37,2013-06-23 07:11:00,
2013-06-23 02:16:00,71.0,68.6,29.93,SSE,160,0.0,0.0,92,0.00,,,0.00,WeatherDisplay:10.37,2013-06-23 07:16:00,
2013-06-23 02:21:00,70.8,68.4,29.93,West,274,0.0,0.0,92,0.00,,,0.00,WeatherDisplay:10.37,2013-06-23 07:21:00,
2013-06-23 02:26:00,70.7,68.3,29.93,SE,133,0.0,3.5,92,0.00,,,0.00,WeatherDisplay:10.37,2013-06-23 07:26:00,
2013-06-23 02:31:00,70.8,68.7,29.93,ESE,113,1.7,3.5,93,0.00,,,0.00,WeatherDisplay:10.37,2013-06-23 07:31:00,
2013-06-23 02:36:00,70.9,68.5,29.93,South,174,0.8,1.1,92,0.00,,,0.00,WeatherDisplay:10.37,2013-06-23 07:36:00,
2013-06-23 02:41:00,71.0,68.6,29.92,South,173,0.7,2.3,92,0.00,,,0.00,WeatherDisplay:10.37,2013-06-23 07:41:00,
2013-06-23 02:46:00,71.0,68.6,29.92,South,170,2.6,3.5,92,0.00,,,0.00,WeatherDisplay:10.37,2013-06-23 07:46:00,
2013-06-23 02:51:00,71.0,68.6,29.92,SSE,150,1.3,3.5,92,0.00,,,0.00,WeatherDisplay:10.37,2013-06-23 07:51:00,
2013-06-23 02:56:00,71.0,68.6,29.92,South,173,1.8,4.0,92,0.00,,,0.00,WeatherDisplay:10.37,2013-06-23 07:56:00,
2013-06-23 03:01:00,71.0,68.6,29.92,WSW,238,1.7,4.6,92,0.00,,,0.00,WeatherDisplay:10.37,2013-06-23 08:01:00,
2013-06-23 03:06:00,71.0,68.6,29.92,SSE,155,0.9,2.3,92,0.00,,,0.00,WeatherDisplay:10.37,2013-06-23 08:06:00,
2013-06-23 03:11:00,70.9,68.5,29.92,SSE,156,0.0,0.0,92,0.00,,,0.00,WeatherDisplay:10.37,2013-06-23 08:11:00,
2013-06-23 03:16:00,70.7,68.3,29.91,South,190,0.6,1.1,92,0.00,,,0.00,WeatherDisplay:10.37,2013-06-23 08:16:00,
2013-06-23 03:21:00,70.5,68.1,29.91,SSE,152,0.3,1.1,92,0.00,,,0.00,WeatherDisplay:10.37,2013-06-23 08:21:00,
2013-06-23 03:26:00,70.3,67.9,29.91,SSW,195,0.0,0.0,92,0.00,,,0.00,WeatherDisplay:10.37,2013-06-23 08:26:00,
2013-06-23 03:31:00,70.1,68.0,29.91,SW,219,0.0,0.0,93,0.00,,,0.00,WeatherDisplay:10.37,2013-06-23 08:31:00,
2013-06-23 03:36:00,70.0,67.9,29.91,WSW,249,0.0,1.0,93,0.00,,,0.00,WeatherDisplay:10.37,2013-06-23 08:36:00,
2013-06-23 03:41:00,70.1,68.0,29.91,SW,226,0.5,1.1,93,0.00,,,0.00,WeatherDisplay:10.37,2013-06-23 08:41:00,
2013-06-23 03:46:00,70.2,68.1,29.91,SW,218,1.0,2.3,93,0.00,,,0.00,WeatherDisplay:10.37,2013-06-23 08:46:00,
2013-06-23 03:51:00,70.2,68.1,29.91,South,191,1.1,1.1,93,0.00,,,0.00,WeatherDisplay:10.37,2013-06-23 08:51:00,
2013-06-23 03:56:00,70.2,67.8,29.91,SSW,210,1.4,3.5,92,0.00,,,0.00,WeatherDisplay:10.37,2013-06-23 08:56:00,
2013-06-23 04:01:00,70.2,67.8,29.90,SSE,152,0.4,1.1,92,0.00,,,0.00,WeatherDisplay:10.37,2013-06-23 09:01:00,
2013-06-23 04:06:00,70.1,67.7,29.90,SE,132,0.0,1.1,92,0.00,,,0.00,WeatherDisplay:10.37,2013-06-23 09:06:00,
2013-06-23 04:11:00,69.9,67.8,29.91,SE,140,0.1,1.1,93,0.00,,,0.00,WeatherDisplay:10.37,2013-06-23 09:11:00,
2013-06-23 04:16:00,69.7,67.6,29.91,ESE,122,0.0,0.0,93,0.00,,,0.00,WeatherDisplay:10.37,2013-06-23 09:16:00,
2013-06-23 04:21:00,69.6,67.5,29.91,ESE,123,0.0,0.0,93,0.00,,,0.00,WeatherDisplay:10.37,2013-06-23 09:21:00,
2013-06-23 04:26:00,69.5,67.7,29.91,ESE,113,0.0,1.1,94,0.00,,,0.00,WeatherDisplay:10.37,2013-06-23 09:26:00,
2013-06-23 04:31:00,69.5,67.7,29.91,SSW,195,1.4,3.5,94,0.00,,,0.00,WeatherDisplay:10.37,2013-06-23 09:31:00,
2013-06-23 04:37:00,69.7,67.9,29.91,SSE,148,2.3,3.5,94,0.00,,,0.00,WeatherDisplay:10.37,2013-06-23 09:37:00,
2013-06-23 04:42:00,70.0,67.9,29.91,South,173,0.8,3.5,93,0.00,,,0.00,WeatherDisplay:10.37,2013-06-23 09:42:00,
2013-06-23 04:47:00,70.1,68.0,29.91,SSW,203,1.3,3.5,93,0.00,,,0.00,WeatherDisplay:10.37,2013-06-23 09:47:00,
2013-06-23 04:52:00,70.3,67.9,29.91,SSE,163,0.9,2.3,92,0.00,,,0.00,WeatherDisplay:10.37,2013-06-23 09:52:00,
2013-06-23 04:57:00,70.2,67.8,29.92,SSE,162,0.0,0.0,92,0.00,,,0.00,WeatherDisplay:10.37,2013-06-23 09:57:00,
2013-06-23 05:02:00,70.0,67.6,29.92,SSE,159,0.0,0.0,92,0.00,,,0.00,WeatherDisplay:10.37,2013-06-23 10:02:00,
2013-06-23 05:07:00,69.8,67.7,29.92,East,85,0.0,0.0,93,0.00,,,0.00,WeatherDisplay:10.37,2013-06-23 10:07:00,
2013-06-23 05:12:00,69.6,67.5,29.92,East,96,0.0,0.0,93,0.00,,,0.00,WeatherDisplay:10.37,2013-06-23 10:12:00,
2013-06-23 05:17:00,69.4,67.3,29.92,SE,130,0.2,1.1,93,0.00,,,0.00,WeatherDisplay:10.37,2013-06-23 10:17:00,
2013-06-23 05:22:00,69.4,67.6,29.92,WSW,239,0.5,1.1,94,0.00,,,0.00,WeatherDisplay:10.37,2013-06-23 10:22:00,
2013-06-23 05:27:00,69.4,67.6,29.92,SW,235,1.8,3.5,94,0.00,CLR,,0.00,WeatherDisplay:10.37,2013-06-23 10:27:00,
2013-06-23 05:32:00,69.4,67.6,29.92,SSW,210,0.8,2.0,94,0.00,CLR,,0.00,WeatherDisplay:10.37,2013-06-23 10:32:00,
2013-06-23 05:37:00,69.4,67.6,29.92,SSE,166,0.1,1.1,94,0.00,CLR,,0.00,WeatherDisplay:10.37,2013-06-23 10:37:00,
2013-06-23 05:42:00,69.4,67.6,29.92,SE,141,0.4,1.1,94,0.00,CLR,,0.00,WeatherDisplay:10.37,2013-06-23 10:42:00,
2013-06-23 05:47:00,69.3,67.5,29.92,SSE,153,0.1,1.1,94,0.00,CLR,,0.00,WeatherDisplay:10.37,2013-06-23 10:47:00,
2013-06-23 05:52:00,69.2,67.4,29.92,SSE,153,0.0,0.0,94,0.00,CLR,,0.00,WeatherDisplay:10.37,2013-06-23 10:52:00,
2013-06-23 05:57:00,69.1,67.3,29.92,South,180,0.7,2.3,94,0.00,CLR,,0.00,WeatherDisplay:10.37,2013-06-23 10:57:00,
2013-06-23 06:02:00,69.1,67.3,29.92,South,174,1.0,2.3,94,0.00,CLR,,0.00,WeatherDisplay:10.37,2013-06-23 11:02:00,
2013-06-23 06:07:00,69.3,67.5,29.92,SSE,162,0.2,2.3,94,0.00,CLR,,0.00,WeatherDisplay:10.37,2013-06-23 11:07:00,
2013-06-23 06:12:00,69.4,67.6,29.92,SSE,149,0.0,0.0,94,0.00,CLR,,0.00,WeatherDisplay:10.37,2013-06-23 11:12:00,
2013-06-23 06:17:00,69.2,67.4,29.92,SSE,158,1.2,2.3,94,0.00,CLR,,0.00,WeatherDisplay:10.37,2013-06-23 11:17:00,
2013-06-23 06:22:00,69.2,67.4,29.92,SE,125,0.4,2.3,94,0.00,CLR,,0.00,WeatherDisplay:10.37,2013-06-23 11:22:00,
2013-06-23 06:27:00,69.1,67.3,29.93,SSE,147,0.0,0.0,94,0.00,CLR,,0.00,WeatherDisplay:10.37,2013-06-23 11:27:00,
2013-06-23 06:32:00,69.0,67.2,29.93,SSE,148,0.0,0.0,94,0.00,CLR,,0.00,WeatherDisplay:10.37,2013-06-23 11:32:00,
2013-06-23 06:37:00,69.0,67.2,29.93,ESE,116,0.0,0.0,94,0.00,CLR,,0.00,WeatherDisplay:10.37,2013-06-23 11:37:00,
2013-06-23 06:42:00,69.0,67.2,29.93,SE,143,0.0,0.0,94,0.00,CLR,,0.00,WeatherDisplay:10.37,2013-06-23 11:42:00,
2013-06-23 06:47:00,69.0,67.5,29.93,SE,144,0.0,0.0,95,0.00,CLR,,0.00,WeatherDisplay:10.37,2013-06-23 11:47:00,
2013-06-23 06:52:00,69.4,67.9,29.93,SE,143,0.0,0.0,95,0.00,CLR,,0.00,WeatherDisplay:10.37,2013-06-23 11:52:00,
2013-06-23 06:57:00,69.9,68.4,29.93,SE,143,0.0,0.0,95,0.00,CLR,,0.00,WeatherDisplay:10.37,2013-06-23 11:57:00,
2013-06-23 07:02:00,70.5,68.7,29.93,SE,139,0.0,0.0,94,0.00,CLR,,0.00,WeatherDisplay:10.37,2013-06-23 12:02:00,
2013-06-23 07:07:00,71.1,69.0,29.93,SE,138,0.0,0.0,93,0.00,CLR,,0.00,WeatherDisplay:10.37,2013-06-23 12:07:00,
2013-06-23 07:12:00,71.6,69.2,29.93,SSE,153,0.0,0.0,92,0.00,CLR,,0.00,WeatherDisplay:10.37,2013-06-23 12:12:00,
2013-06-23 07:17:00,72.3,69.5,29.93,East,93,0.2,1.1,91,0.00,CLR,,0.00,WeatherDisplay:10.37,2013-06-23 12:17:00,
2013-06-23 07:22:00,72.8,69.7,29.93,East,93,0.0,0.0,90,0.00,CLR,,0.00,WeatherDisplay:10.37,2013-06-23 12:22:00,
2013-06-23 07:27:00,73.4,70.0,29.93,SSE,165,0.0,0.0,89,0.00,CLR,,0.00,WeatherDisplay:10.37,2013-06-23 12:27:00,
2013-06-23 07:32:00,73.7,69.9,29.93,SSE,160,0.1,1.1,88,0.00,CLR,,0.00,WeatherDisplay:10.37,2013-06-23 12:32:00,
2013-06-23 07:37:00,74.0,70.2,29.94,ESE,120,0.1,2.3,88,0.00,CLR,,0.00,WeatherDisplay:10.37,2013-06-23 12:37:00,
2013-06-23 07:42:00,74.3,70.5,29.93,ENE,72,0.0,0.0,88,0.00,CLR,,0.00,WeatherDisplay:10.37,2013-06-23 12:42:00,
2013-06-23 07:47:00,74.5,70.4,29.93,NE,51,0.1,1.1,87,0.00,CLR,,0.00,WeatherDisplay:10.37,2013-06-23 12:47:00,
2013-06-23 07:52:00,74.8,70.7,29.94,ESE,112,0.4,1.1,87,0.00,CLR,,0.00,WeatherDisplay:10.37,2013-06-23 12:52:00,
2013-06-23 07:57:00,75.0,70.5,29.93,SW,232,0.3,2.3,86,0.00,CLR,,0.00,WeatherDisplay:10.37,2013-06-23 12:57:00,
2013-06-23 08:02:00,75.1,70.6,29.94,SSE,148,0.8,2.3,86,0.00,CLR,,0.00,WeatherDisplay:10.37,2013-06-23 13:02:00,
2013-06-23 08:07:00,75.0,70.5,29.94,SSE,148,1.9,4.0,86,0.00,CLR,,0.00,WeatherDisplay:10.37,2013-06-23 13:07:00,
2013-06-23 08:12:00,75.1,70.6,29.94,SE,127,1.4,3.5,86,0.00,CLR,,0.00,WeatherDisplay:10.37,2013-06-23 13:12:00,
2013-06-23 08:17:00,75.6,71.1,29.93,NW,316,1.0,2.0,86,0.00,CLR,,0.00,WeatherDisplay:10.37,2013-06-23 13:17:00,
2013-06-23 08:22:00,76.2,71.0,29.93,SE,124,0.2,2.3,84,0.00,CLR,,0.00,WeatherDisplay:10.37,2013-06-23 13:22:00,
2013-06-23 08:27:00,76.4,71.2,29.93,East,82,0.4,4.6,84,0.00,CLR,,0.00,WeatherDisplay:10.37,2013-06-23 13:27:00,
2013-06-23 08:32:00,76.6,71.4,29.94,SSE,165,0.7,3.0,84,0.00,CLR,,0.00,WeatherDisplay:10.37,2013-06-23 13:32:00,
2013-06-23 08:37:00,76.9,71.7,29.94,East,86,0.2,1.1,84,0.00,CLR,,0.00,WeatherDisplay:10.37,2013-06-23 13:37:00,
2013-06-23 08:42:00,77.3,72.1,29.94,SE,128,0.7,3.0,84,0.00,CLR,,0.00,WeatherDisplay:10.37,2013-06-23 13:42:00,
2013-06-23 08:47:00,77.6,72.0,29.94,ENE,70,0.3,1.1,83,0.00,CLR,,0.00,WeatherDisplay:10.37,2013-06-23 13:47:00,
2013-06-23 08:52:00,78.2,72.6,29.94,ESE,119,0.0,0.0,83,0.00,CLR,,0.00,WeatherDisplay:10.37,2013-06-23 13:52:00,
2013-06-23 08:57:00,78.4,72.4,29.94,WSW,238,2.7,9.2,82,0.00,CLR,,0.00,WeatherDisplay:10.37,2013-06-23 13:57:00,
2013-06-23 09:02:00,78.9,72.6,29.94,NNW,335,0.0,1.1,81,0.00,CLR,,0.00,WeatherDisplay:10.37,2013-06-23 14:02:00,
2013-06-23 09:07:00,79.4,72.3,29.94,SSW,198,1.3,5.0,79,0.00,CLR,,0.00,WeatherDisplay:10.37,2013-06-23 14:07:00,
2013-06-23 09:12:00,79.2,72.1,29.94,SSE,166,3.0,3.5,79,0.00,CLR,,0.00,WeatherDisplay:10.37,2013-06-23 14:12:00,
2013-06-23 09:17:00,79.3,72.6,29.94,SE,133,2.5,3.5,80,0.00,CLR,,0.00,WeatherDisplay:10.37,2013-06-23 14:17:00,
2013-06-23 09:22:00,79.6,72.9,29.94,South,176,1.8,4.6,80,0.00,CLR,,0.00,WeatherDisplay:10.37,2013-06-23 14:22:00,
2013-06-23 09:28:00,79.7,73.3,29.93,East,89,1.6,3.5,81,0.00,CLR,,0.00,WeatherDisplay:10.37,2013-06-23 14:28:00,
2013-06-23 09:33:00,79.7,72.6,29.93,South,170,2.6,5.8,79,0.00,CLR,,0.00,WeatherDisplay:10.37,2013-06-23 14:33:00,
2013-06-23 09:38:00,80.3,73.2,29.93,ENE,75,0.7,2.3,79,0.00,CLR,,0.00,WeatherDisplay:10.37,2013-06-23 14:38:00,
2013-06-23 09:43:00,80.7,73.2,29.94,NE,49,1.6,3.5,78,0.00,CLR,,0.00,WeatherDisplay:10.37,2013-06-23 14:43:00,
2013-06-23 09:48:00,81.0,73.5,29.93,West,261,2.3,4.6,78,0.00,CLR,,0.00,WeatherDisplay:10.37,2013-06-23 14:48:00,
2013-06-23 09:53:00,81.4,73.5,29.93,SW,225,2.1,3.5,77,0.00,CLR,,0.00,WeatherDisplay:10.37,2013-06-23 14:53:00,
2013-06-23 09:58:00,81.6,74.1,29.93,ENE,74,1.1,3.5,78,0.00,CLR,,0.00,WeatherDisplay:10.37,2013-06-23 14:58:00,
2013-06-23 10:03:00,81.4,73.5,29.94,ENE,75,0.2,2.0,77,0.00,CLR,,0.00,WeatherDisplay:10.37,2013-06-23 15:03:00,
2013-06-23 10:08:00,81.4,73.5,29.93,ESE,120,1.5,3.5,77,0.00,CLR,,0.00,WeatherDisplay:10.37,2013-06-23 15:08:00,
2013-06-23 10:13:00,82.0,74.1,29.93,ESE,115,1.5,4.6,77,0.00,CLR,,0.00,WeatherDisplay:10.37,2013-06-23 15:13:00,
2013-06-23 10:18:00,82.6,74.3,29.93,South,173,2.0,5.8,76,0.00,CLR,,0.00,WeatherDisplay:10.37,2013-06-23 15:18:00,
2013-06-23 10:23:00,82.7,74.0,29.93,East,101,0.7,3.5,75,0.00,CLR,,0.00,WeatherDisplay:10.37,2013-06-23 15:23:00,
2013-06-23 10:28:00,83.1,74.4,29.93,ESE,116,1.8,3.5,75,0.00,CLR,,0.00,WeatherDisplay:10.37,2013-06-23 15:28:00,
2013-06-23 10:34:00,84.0,74.8,29.93,WSW,252,0.3,1.1,74,0.00,CLR,,0.00,WeatherDisplay:10.37,2013-06-23 15:34:00,
2013-06-23 10:39:00,84.2,74.2,29.94,SSE,155,1.8,3.5,72,0.00,CLR,,0.00,WeatherDisplay:10.37,2013-06-23 15:39:00,
2013-06-23 10:44:00,84.3,75.1,29.94,SSE,149,0.9,2.3,74,0.00,CLR,,0.00,WeatherDisplay:10.37,2013-06-23 15:44:00,
2013-06-23 10:49:00,84.3,73.9,29.94,SW,217,5.9,8.1,71,0.00,CLR,,0.00,WeatherDisplay:10.37,2013-06-23 15:49:00,
2013-06-23 10:54:00,84.3,74.7,29.93,ESE,103,3.9,5.8,73,0.00,CLR,,0.00,WeatherDisplay:10.37,2013-06-23 15:54:00,
2013-06-23 10:59:00,84.7,74.7,29.93,SSE,155,2.7,5.8,72,0.00,CLR,,0.00,WeatherDisplay:10.37,2013-06-23 15:59:00,
2013-06-23 11:04:00,85.5,75.9,29.93,SSW,197,0.6,4.0,73,0.00,CLR,,0.00,WeatherDisplay:10.37,2013-06-23 16:04:00,
2013-06-23 11:09:00,84.9,71.8,29.93,SW,233,7.7,11.5,65,0.00,CLR,,0.00,WeatherDisplay:10.37,2013-06-23 16:09:00,
2013-06-23 11:14:00,85.1,72.5,29.93,SW,222,6.8,10.4,66,0.00,CLR,,0.00,WeatherDisplay:10.37,2013-06-23 16:14:00,
2013-06-23 11:19:00,85.4,73.2,29.93,WSW,250,2.6,5.8,67,0.00,CLR,,0.00,WeatherDisplay:10.37,2013-06-23 16:19:00,
2013-06-23 11:24:00,85.4,73.2,29.94,West,278,2.2,3.5,67,0.00,CLR,,0.00,WeatherDisplay:10.37,2013-06-23 16:24:00,
2013-06-23 11:29:00,86.1,72.0,29.94,WSW,240,3.5,8.1,63,0.00,CLR,,0.00,WeatherDisplay:10.37,2013-06-23 16:29:00,
2013-06-23 11:34:00,85.9,72.8,29.93,WSW,246,4.0,10.4,65,0.00,CLR,,0.00,WeatherDisplay:10.37,2013-06-23 16:34:00,
2013-06-23 11:39:00,84.9,71.8,29.94,SW,235,7.1,9.2,65,0.00,CLR,,0.00,WeatherDisplay:10.37,2013-06-23 16:39:00,
2013-06-23 11:44:00,84.9,73.2,29.94,SSW,203,3.6,4.6,68,0.00,CLR,,0.00,WeatherDisplay:10.37,2013-06-23 16:44:00,
2013-06-23 11:49:00,84.5,71.9,29.94,SSW,204,6.8,8.1,66,0.00,CLR,,0.00,WeatherDisplay:10.37,2013-06-23 16:49:00,
2013-06-23 11:54:00,84.9,72.7,29.94,SSW,198,1.8,3.5,67,0.00,CLR,,0.00,WeatherDisplay:10.37,2013-06-23 16:54:00,
2013-06-23 11:57:00,85.2,73.0,29.94,South,190,3.4,5.8,67,0.00,CLR,,0.00,WeatherDisplay:10.37,2013-06-23 16:57:00,
2013-06-23 11:58:00,85.2,73.0,29.94,SSW,203,3.2,5.8,67,0.00,CLR,,0.00,WeatherDisplay:10.37,2013-06-23 16:58:00,
2013-06-23 12:03:00,86.2,73.5,29.94,SE,124,4.8,9.2,66,0.00,CLR,,0.00,WeatherDisplay:10.37,2013-06-23 17:03:00,
2013-06-23 12:08:00,86.5,72.4,29.94,WSW,253,4.9,6.9,63,0.00,CLR,,0.00,WeatherDisplay:10.37,2013-06-23 17:08:00,
2013-06-23 12:13:00,86.7,72.6,29.94,SW,222,7.3,13.0,63,0.00,CLR,,0.00,WeatherDisplay:10.37,2013-06-23 17:13:00,
2013-06-23 12:18:00,85.7,72.1,29.94,SSW,204,5.7,10.4,64,0.00,CLR,,0.00,WeatherDisplay:10.37,2013-06-23 17:18:00,
2013-06-23 12:23:00,86.4,73.7,29.94,WSW,240,2.6,4.6,66,0.00,CLR,,0.00,WeatherDisplay:10.37,2013-06-23 17:23:00,
2013-06-23 12:28:00,86.8,73.2,29.94,West,268,2.6,5.8,64,0.00,CLR,,0.00,WeatherDisplay:10.37,2013-06-23 17:28:00,
2013-06-23 12:33:00,86.6,72.5,29.94,WNW,283,2.4,3.5,63,0.00,CLR,,0.00,WeatherDisplay:10.37,2013-06-23 17:33:00,
2013-06-23 12:38:00,86.9,73.3,29.94,West,273,2.1,3.5,64,0.00,CLR,,0.00,WeatherDisplay:10.37,2013-06-23 17:38:00,
2013-06-23 12:43:00,87.4,72.3,29.94,WSW,250,4.1,10.4,61,0.00,CLR,,0.00,WeatherDisplay:10.37,2013-06-23 17:43:00,
2013-06-23 12:48:00,88.6,72.9,29.94,SW,218,2.6,5.0,60,0.00,CLR,,0.00,WeatherDisplay:10.37,2013-06-23 17:48:00,
2013-06-23 12:53:00,88.8,72.6,29.93,SSW,207,5.8,10.0,59,0.00,CLR,,0.00,WeatherDisplay:10.37,2013-06-23 17:53:00,
2013-06-23 12:58:00,88.3,71.6,29.94,South,179,7.2,11.5,58,0.00,CLR,,0.00,WeatherDisplay:10.37,2013-06-23 17:58:00,
2013-06-23 13:03:00,88.5,72.8,29.93,SW,231,1.3,4.0,60,0.00,CLR,,0.00,WeatherDisplay:10.37,2013-06-23 18:03:00,
2013-06-23 13:08:00,88.2,72.1,29.94,SSW,193,6.1,11.5,59,0.00,CLR,,0.00,WeatherDisplay:10.37,2013-06-23 18:08:00,
2013-06-23 13:13:00,88.5,72.3,29.93,West,278,2.9,5.8,59,0.00,CLR,,0.00,WeatherDisplay:10.37,2013-06-23 18:13:00,
2013-06-23 13:18:00,90.1,74.3,29.93,South,181,0.8,3.5,60,0.00,CLR,,0.00,WeatherDisplay:10.37,2013-06-23 18:18:00,
2013-06-23 13:23:00,89.5,72.3,29.93,SW,217,4.0,11.5,57,0.00,CLR,,0.00,WeatherDisplay:10.37,2013-06-23 18:23:00,
2013-06-23 13:28:00,88.7,72.0,29.93,West,268,1.2,5.8,58,0.00,CLR,,0.00,WeatherDisplay:10.37,2013-06-23 18:28:00,
2013-06-23 13:33:00,88.7,73.0,29.93,West,270,2.7,6.9,60,0.00,CLR,,0.00,WeatherDisplay:10.37,2013-06-23 18:33:00,
2013-06-23 13:38:00,89.1,72.9,29.93,WNW,285,3.4,6.9,59,0.00,CLR,,0.00,WeatherDisplay:10.37,2013-06-23 18:38:00,
2013-06-23 13:43:00,88.8,71.6,29.93,SW,215,2.2,7.0,57,0.00,CLR,,0.00,WeatherDisplay:10.37,2013-06-23 18:43:00,
2013-06-23 13:48:00,89.1,73.9,29.93,SW,215,1.8,3.5,61,0.00,CLR,,0.00,WeatherDisplay:10.37,2013-06-23 18:48:00,
2013-06-23 13:53:00,89.7,71.9,29.92,WSW,256,4.0,8.1,56,0.00,CLR,,0.00,WeatherDisplay:10.37,2013-06-23 18:53:00,
2013-06-23 13:58:00,89.3,69.9,29.92,WSW,247,6.4,9.2,53,0.00,CLR,,0.00,WeatherDisplay:10.37,2013-06-23 18:58:00,
2013-06-23 14:03:00,89.7,71.9,29.92,SSE,150,1.8,3.5,56,0.00,CLR,,0.00,WeatherDisplay:10.37,2013-06-23 19:03:00,
2013-06-23 14:08:00,89.8,72.0,29.92,SW,225,1.8,3.5,56,0.00,CLR,,0.00,WeatherDisplay:10.37,2013-06-23 19:08:00,
2013-06-23 14:13:00,89.2,71.5,29.92,South,184,4.3,5.8,56,0.00,CLR,,0.00,WeatherDisplay:10.37,2013-06-23 19:13:00,
2013-06-23 14:18:00,89.8,73.0,29.92,SSE,155,1.2,4.6,58,0.00,CLR,,0.00,WeatherDisplay:10.37,2013-06-23 19:18:00,
2013-06-23 14:23:00,89.7,70.8,29.92,SW,218,2.6,4.6,54,0.00,CLR,,0.00,WeatherDisplay:10.37,2013-06-23 19:23:00,
2013-06-23 14:28:00,90.0,73.7,29.92,South,189,0.3,3.5,59,0.00,CLR,,0.00,WeatherDisplay:10.37,2013-06-23 19:28:00,
2013-06-23 14:33:00,90.3,72.5,29.92,SW,231,1.2,4.6,56,0.00,CLR,,0.00,WeatherDisplay:10.37,2013-06-23 19:33:00,
2013-06-23 14:38:00,89.8,71.5,29.91,WSW,250,5.1,10.4,55,0.00,CLR,,0.00,WeatherDisplay:10.37,2013-06-23 19:38:00,
2013-06-23 14:43:00,89.9,73.7,29.92,SSW,212,3.8,9.2,59,0.00,CLR,,0.00,WeatherDisplay:10.37,2013-06-23 19:43:00,
2013-06-23 14:49:00,89.9,71.6,29.91,South,177,3.3,4.6,55,0.00,CLR,,0.00,WeatherDisplay:10.37,2013-06-23 19:49:00,
2013-06-23 14:54:00,90.6,71.7,29.91,WSW,238,3.2,3.5,54,0.00,CLR,,0.00,WeatherDisplay:10.37,2013-06-23 19:54:00,
2013-06-23 14:59:00,91.2,71.7,29.90,NNW,339,1.5,3.5,53,0.00,CLR,,0.00,WeatherDisplay:10.37,2013-06-23 19:59:00,
2013-06-23 15:04:00,91.4,71.3,29.90,WSW,242,3.6,3.6,52,0.00,CLR,,0.00,WeatherDisplay:10.37,2013-06-23 20:04:00,
2013-06-23 15:09:00,92.0,71.3,29.90,West,279,4.1,5.8,51,0.00,CLR,,0.00,WeatherDisplay:10.37,2013-06-23 20:09:00,
2013-06-23 15:14:00,91.8,72.2,29.90,SW,215,4.2,10.0,53,0.00,CLR,,0.00,WeatherDisplay:10.37,2013-06-23 20:14:00,
2013-06-23 15:19:00,91.0,72.0,29.89,SSW,210,2.1,3.5,54,0.00,CLR,,0.00,WeatherDisplay:10.37,2013-06-23 20:19:00,
2013-06-23 15:24:00,90.6,70.6,29.90,SW,218,6.4,9.2,52,0.00,CLR,,0.00,WeatherDisplay:10.37,2013-06-23 20:24:00,
2013-06-23 15:29:00,90.0,71.1,29.90,SW,228,3.7,5.8,54,0.00,CLR,,0.00,WeatherDisplay:10.37,2013-06-23 20:29:00,
2013-06-23 15:34:00,89.6,70.2,29.89,SW,228,4.8,6.9,53,0.00,CLR,,0.00,WeatherDisplay:10.37,2013-06-23 20:34:00,
2013-06-23 15:39:00,90.4,72.6,29.89,SSW,210,2.1,3.5,56,0.00,CLR,,0.00,WeatherDisplay:10.37,2013-06-23 20:39:00,
2013-06-23 15:44:00,90.2,70.2,29.89,WSW,249,4.5,5.8,52,0.00,CLR,,0.00,WeatherDisplay:10.37,2013-06-23 20:44:00,
2013-06-23 15:49:00,90.2,70.2,29.89,SE,131,7.4,9.2,52,0.00,CLR,,0.00,WeatherDisplay:10.37,2013-06-23 20:49:00,
2013-06-23 15:54:00,90.6,71.7,29.89,South,178,1.9,4.0,54,0.00,CLR,,0.00,WeatherDisplay:10.37,2013-06-23 20:54:00,
2013-06-23 15:59:00,90.9,70.3,29.89,WNW,293,2.3,4.0,51,0.00,CLR,,0.00,WeatherDisplay:10.37,2013-06-23 20:59:00,
2013-06-23 16:04:00,90.9,69.7,29.89,SW,232,5.7,9.2,50,0.00,CLR,,0.00,WeatherDisplay:10.37,2013-06-23 21:04:00,
2013-06-23 16:09:00,90.7,68.9,29.89,SSW,201,4.2,11.5,49,0.00,,,0.00,WeatherDisplay:10.37,2013-06-23 21:09:00,
2013-06-23 16:14:00,90.7,68.9,29.88,ESE,117,3.2,8.1,49,0.00,,,0.00,WeatherDisplay:10.37,2013-06-23 21:14:00,
2013-06-23 16:19:00,90.8,69.6,29.88,SW,233,4.1,5.8,50,0.00,,,0.00,WeatherDisplay:10.37,2013-06-23 21:19:00,
2013-06-23 16:24:00,91.3,70.1,29.88,SSW,211,3.3,5.8,50,0.00,,,0.00,WeatherDisplay:10.37,2013-06-23 21:24:00,
2013-06-23 16:29:00,91.6,70.3,29.88,South,184,2.8,5.8,50,0.00,,,0.00,WeatherDisplay:10.37,2013-06-23 21:29:00,
2013-06-23 16:34:00,91.0,68.6,29.88,SW,230,6.4,11.5,48,0.00,,,0.00,WeatherDisplay:10.37,2013-06-23 21:34:00,
2013-06-23 16:39:00,90.6,70.0,29.88,SE,134,2.8,5.0,51,0.00,,,0.00,WeatherDisplay:10.37,2013-06-23 21:39:00,
2013-06-23 16:44:00,90.6,70.0,29.88,SW,218,2.3,7.0,51,0.00,,,0.00,WeatherDisplay:10.37,2013-06-23 21:44:00,
2013-06-23 16:49:00,90.6,69.4,29.88,SSE,161,5.9,10.4,50,0.00,,,0.00,WeatherDisplay:10.37,2013-06-23 21:49:00,
2013-06-23 16:54:00,90.8,70.2,29.87,SSE,153,1.3,2.3,51,0.00,,,0.00,WeatherDisplay:10.37,2013-06-23 21:54:00,
2013-06-23 16:59:00,91.3,70.1,29.87,SW,226,2.8,6.9,50,0.00,,,0.00,WeatherDisplay:10.37,2013-06-23 21:59:00,
2013-06-23 17:04:00,90.6,67.6,29.87,SW,232,6.4,8.1,47,0.00,,,0.00,WeatherDisplay:10.37,2013-06-23 22:04:00,
2013-06-23 17:09:00,90.6,68.2,29.87,SSE,165,2.9,5.8,48,0.00,,,0.00,WeatherDisplay:10.37,2013-06-23 22:09:00,
2013-06-23 17:14:00,90.9,69.1,29.87,SSW,208,3.5,4.6,49,0.00,,,0.00,WeatherDisplay:10.37,2013-06-23 22:14:00,
2013-06-23 17:19:00,90.6,70.0,29.87,WSW,256,2.8,6.9,51,0.00,,,0.00,WeatherDisplay:10.37,2013-06-23 22:19:00,
2013-06-23 17:24:00,91.0,69.8,29.87,SSW,203,2.4,3.5,50,0.00,,,0.00,WeatherDisplay:10.37,2013-06-23 22:24:00,
2013-06-23 17:29:00,91.0,69.8,29.87,SW,215,2.7,11.5,50,0.00,,,0.00,WeatherDisplay:10.37,2013-06-23 22:29:00,
2013-06-23 17:34:00,90.9,70.3,29.87,SSE,166,1.8,3.5,51,0.00,,,0.00,WeatherDisplay:10.37,2013-06-23 22:34:00,
2013-06-23 17:39:00,91.4,71.3,29.86,West,262,0.1,1.1,52,0.00,,,0.00,WeatherDisplay:10.37,2013-06-23 22:39:00,
2013-06-23 17:44:00,91.3,71.2,29.86,South,188,4.4,11.5,52,0.00,,,0.00,WeatherDisplay:10.37,2013-06-23 22:44:00,
2013-06-23 17:49:00,90.8,70.7,29.85,SW,230,4.0,8.1,52,0.00,,,0.00,WeatherDisplay:10.37,2013-06-23 22:49:00,
2013-06-23 17:54:00,90.4,71.5,29.85,NNE,30,4.1,9.2,54,0.00,,,0.00,WeatherDisplay:10.37,2013-06-23 22:54:00,
2013-06-23 17:59:00,90.0,71.1,29.85,SSW,201,1.3,6.9,54,0.00,,,0.00,WeatherDisplay:10.37,2013-06-23 22:59:00,
2013-06-23 18:04:00,89.8,70.4,29.84,SW,221,3.7,6.9,53,0.00,,,0.00,WeatherDisplay:10.37,2013-06-23 23:04:00,
2013-06-23 18:09:00,89.5,70.1,29.84,South,169,5.1,6.9,53,0.00,,,0.00,WeatherDisplay:10.37,2013-06-23 23:09:00,
2013-06-23 18:14:00,89.5,70.7,29.84,SSE,162,5.5,7.0,54,0.00,,,0.00,WeatherDisplay:10.37,2013-06-23 23:14:00,
2013-06-23 18:19:00,89.2,68.7,29.84,SSE,150,3.8,4.6,51,0.00,,,0.00,WeatherDisplay:10.37,2013-06-23 23:19:00,
2013-06-23 18:24:00,89.1,69.2,29.85,SW,219,4.3,5.8,52,0.00,,,0.00,WeatherDisplay:10.37,2013-06-23 23:24:00,
2013-06-23 18:29:00,89.1,69.7,29.85,ENE,64,2.2,8.1,53,0.00,,,0.00,WeatherDisplay:10.37,2013-06-23 23:29:00,
2013-06-23 18:34:00,89.1,70.3,29.85,SSE,153,3.2,6.9,54,0.00,,,0.00,WeatherDisplay:10.37,2013-06-23 23:34:00,
2013-06-23 18:39:00,88.8,70.5,29.85,SE,133,4.1,9.2,55,0.00,,,0.00,WeatherDisplay:10.37,2013-06-23 23:39:00,
2013-06-23 18:44:00,88.6,69.8,29.85,SSE,148,4.4,9.2,54,0.00,,,0.00,WeatherDisplay:10.37,2013-06-23 23:44:00,
2013-06-23 18:49:00,88.6,70.9,29.85,SSE,150,2.7,3.5,56,0.00,,,0.00,WeatherDisplay:10.37,2013-06-23 23:49:00,
2013-06-23 18:54:00,88.3,70.6,29.86,SSE,165,1.2,5.0,56,0.00,,,0.00,WeatherDisplay:10.37,2013-06-23 23:54:00,
2013-06-23 18:59:00,88.1,70.4,29.86,SSW,211,1.4,9.2,56,0.00,,,0.00,WeatherDisplay:10.37,2013-06-23 23:59:00,
2013-06-23 19:04:00,88.0,70.9,29.86,SSE,168,1.0,3.5,57,0.00,,,0.00,WeatherDisplay:10.37,2013-06-24 00:04:00,
2013-06-23 19:09:00,87.9,70.2,29.86,South,169,2.7,5.8,56,0.00,CLR,,0.00,WeatherDisplay:10.37,2013-06-24 00:09:00,
2013-06-23 19:14:00,87.5,70.4,29.86,South,181,2.1,6.9,57,0.00,CLR,,0.00,WeatherDisplay:10.37,2013-06-24 00:14:00,
2013-06-23 19:19:00,87.2,70.6,29.86,ESE,122,2.8,4.6,58,0.00,CLR,,0.00,WeatherDisplay:10.37,2013-06-24 00:19:00,
2013-06-23 19:24:00,86.6,70.1,29.86,SSE,163,2.8,3.5,58,0.00,CLR,,0.00,WeatherDisplay:10.37,2013-06-24 00:24:00,
2013-06-23 19:29:00,86.3,70.8,29.86,SE,127,2.0,4.6,60,0.00,CLR,,0.00,WeatherDisplay:10.37,2013-06-24 00:29:00,
2013-06-23 19:34:00,85.9,70.4,29.86,SE,132,2.3,3.5,60,0.00,CLR,,0.00,WeatherDisplay:10.37,2013-06-24 00:34:00,
2013-06-23 19:39:00,85.6,70.6,29.86,SSE,147,2.2,3.5,61,0.00,CLR,,0.00,WeatherDisplay:10.37,2013-06-24 00:39:00,
2013-06-23 19:44:00,85.2,70.7,29.86,SSW,194,1.0,4.6,62,0.00,CLR,,0.00,WeatherDisplay:10.37,2013-06-24 00:44:00,
2013-06-23 19:49:00,85.0,71.0,29.87,South,177,2.7,5.8,63,0.00,CLR,,0.00,WeatherDisplay:10.37,2013-06-24 00:49:00,
2013-06-23 19:55:00,84.8,70.8,29.86,SSE,150,1.1,4.6,63,0.00,CLR,,0.00,WeatherDisplay:10.37,2013-06-24 00:55:00,
2013-06-23 20:00:00,84.6,70.6,29.87,SE,144,0.8,3.5,63,0.00,CLR,,0.00,WeatherDisplay:10.37,2013-06-24 01:00:00,
2013-06-23 20:05:00,84.4,70.4,29.88,South,169,1.6,3.5,63,0.00,CLR,,0.00,WeatherDisplay:10.37,2013-06-24 01:05:00,
2013-06-23 20:10:00,84.1,70.1,29.88,WSW,255,2.6,4.6,63,0.00,CLR,,0.00,WeatherDisplay:10.37,2013-06-24 01:10:00,
2013-06-23 20:15:00,84.0,70.5,29.88,SSE,165,2.7,5.8,64,0.00,CLR,,0.00,WeatherDisplay:10.37,2013-06-24 01:15:00,
2013-06-23 20:20:00,83.7,70.2,29.88,SSW,210,3.2,5.8,64,0.00,CLR,,0.00,WeatherDisplay:10.37,2013-06-24 01:20:00,
2013-06-23 20:25:00,83.4,70.4,29.88,ESE,120,2.3,3.5,65,0.00,CLR,,0.00,WeatherDisplay:10.37,2013-06-24 01:25:00,
2013-06-23 20:30:00,83.1,70.1,29.88,SSE,159,1.1,3.0,65,0.00,CLR,,0.00,WeatherDisplay:10.37,2013-06-24 01:30:00,
2013-06-23 20:35:00,82.9,70.4,29.88,WSW,256,2.7,3.5,66,0.00,CLR,,0.00,WeatherDisplay:10.37,2013-06-24 01:35:00,
2013-06-23 20:40:00,82.8,70.3,29.88,SSE,156,1.0,3.5,66,0.00,CLR,,0.00,WeatherDisplay:10.37,2013-06-24 01:40:00,
2013-06-23 20:45:00,82.6,70.1,29.88,SSE,159,2.7,3.5,66,0.00,CLR,,0.00,WeatherDisplay:10.37,2013-06-24 01:45:00,
2013-06-23 20:50:00,82.5,70.0,29.89,SSW,195,3.6,8.1,66,0.00,CLR,,0.00,WeatherDisplay:10.37,2013-06-24 01:50:00,
2013-06-23 20:55:00,82.4,69.9,29.89,SSW,195,0.4,4.6,66,0.00,CLR,,0.00,WeatherDisplay:10.37,2013-06-24 01:55:00,
2013-06-23 21:00:00,82.2,70.1,29.89,SSE,162,1.1,4.0,67,0.00,,,0.00,WeatherDisplay:10.37,2013-06-24 02:00:00,
2013-06-23 21:05:00,81.9,69.9,29.89,South,170,1.0,2.3,67,0.00,,,0.00,WeatherDisplay:10.37,2013-06-24 02:05:00,
2013-06-23 21:10:00,81.7,69.7,29.90,SSE,153,2.6,5.8,67,0.00,,,0.00,WeatherDisplay:10.37,2013-06-24 02:10:00,
2013-06-23 21:15:00,81.6,70.0,29.90,SE,131,0.1,1.1,68,0.00,,,0.00,WeatherDisplay:10.37,2013-06-24 02:15:00,
2013-06-23 21:20:00,81.4,69.8,29.90,SSE,166,0.1,1.1,68,0.00,,,0.00,WeatherDisplay:10.37,2013-06-24 02:20:00,
2013-06-23 21:25:00,81.1,70.0,29.90,SE,141,0.0,1.0,69,0.00,,,0.00,WeatherDisplay:10.37,2013-06-24 02:25:00,
2013-06-23 21:30:00,80.8,69.7,29.91,SSE,147,0.7,2.3,69,0.00,,,0.00,WeatherDisplay:10.37,2013-06-24 02:30:00,
2013-06-23 21:35:00,80.4,69.7,29.91,SSW,198,0.9,1.1,70,0.00,,,0.00,WeatherDisplay:10.37,2013-06-24 02:35:00,
2013-06-23 21:40:00,80.2,69.5,29.91,South,186,0.0,0.0,70,0.00,,,0.00,WeatherDisplay:10.37,2013-06-24 02:40:00,
2013-06-23 21:45:00,79.9,69.7,29.91,South,188,0.1,0.0,71,0.00,,,0.00,WeatherDisplay:10.37,2013-06-24 02:45:00,
2013-06-23 21:50:00,79.6,69.4,29.92,SSE,163,0.0,0.0,71,0.00,,,0.00,WeatherDisplay:10.37,2013-06-24 02:50:00,
2013-06-23 21:55:00,79.4,69.6,29.92,South,184,0.0,1.1,72,0.00,,,0.00,WeatherDisplay:10.37,2013-06-24 02:55:00,
2013-06-23 22:00:00,79.2,69.4,29.92,South,169,0.3,2.0,72,0.00,,,0.00,WeatherDisplay:10.37,2013-06-24 03:00:00,
2013-06-23 22:05:00,79.0,69.2,29.92,SSE,152,0.2,2.3,72,0.00,,,0.00,WeatherDisplay:10.37,2013-06-24 03:05:00,
2013-06-23 22:10:00,78.9,69.5,29.93,SE,138,0.0,0.0,73,0.00,,,0.00,WeatherDisplay:10.37,2013-06-24 03:10:00,
2013-06-23 22:15:00,78.7,69.3,29.93,SSE,156,0.0,0.0,73,0.00,,,0.00,WeatherDisplay:10.37,2013-06-24 03:15:00,
2013-06-23 22:20:00,78.5,69.1,29.93,SSE,165,0.0,0.0,73,0.00,,,0.00,WeatherDisplay:10.37,2013-06-24 03:20:00,
2013-06-23 22:25:00,78.1,69.1,29.93,SSE,165,0.0,0.0,74,0.00,,,0.00,WeatherDisplay:10.37,2013-06-24 03:25:00,
2013-06-23 22:30:00,77.9,69.3,29.93,SE,141,0.0,0.0,75,0.00,,,0.00,WeatherDisplay:10.37,2013-06-24 03:30:00,
2013-06-23 22:35:00,77.8,69.2,29.93,SSW,207,0.0,1.1,75,0.00,,,0.00,WeatherDisplay:10.37,2013-06-24 03:35:00,
2013-06-23 22:40:00,77.8,69.2,29.93,SSW,204,0.1,0.0,75,0.00,,,0.00,WeatherDisplay:10.37,2013-06-24 03:40:00,
2013-06-23 22:45:00,77.8,69.6,29.94,ESE,108,0.1,1.1,76,0.00,,,0.00,WeatherDisplay:10.37,2013-06-24 03:45:00,
2013-06-23 22:50:00,77.7,69.5,29.94,ESE,123,0.0,0.0,76,0.00,,,0.00,WeatherDisplay:10.37,2013-06-24 03:50:00,
2013-06-23 22:55:00,77.6,69.0,29.94,SE,138,0.3,1.1,75,0.00,,,0.00,WeatherDisplay:10.37,2013-06-24 03:55:00,
2013-06-23 23:00:00,77.5,69.3,29.94,SE,145,0.1,0.0,76,0.00,,,0.00,WeatherDisplay:10.37,2013-06-24 04:00:00,
2013-06-23 23:01:00,77.5,69.3,29.94,SE,145,0.1,1.1,76,0.00,,,0.00,WeatherDisplay:10.37,2013-06-24 04:01:00,
2013-06-23 23:06:00,77.4,69.2,29.94,South,173,0.1,1.1,76,0.00,,,0.00,WeatherDisplay:10.37,2013-06-24 04:06:00,
2013-06-23 23:11:00,77.3,69.1,29.94,SSW,212,0.0,1.0,76,0.00,,,0.00,WeatherDisplay:10.37,2013-06-24 04:11:00,
2013-06-23 23:16:00,77.1,68.9,29.94,SE,145,0.0,1.1,76,0.00,,,0.00,WeatherDisplay:10.37,2013-06-24 04:16:00,
2013-06-23 23:21:00,77.1,68.9,29.94,SE,136,0.5,3.5,76,0.00,,,0.00,WeatherDisplay:10.37,2013-06-24 04:21:00,
2013-06-23 23:26:00,77.1,68.9,29.94,SSE,153,1.4,3.5,76,0.00,,,0.00,WeatherDisplay:10.37,2013-06-24 04:26:00,
2013-06-23 23:31:00,77.1,69.3,29.94,SW,214,2.5,4.6,77,0.00,,,0.00,WeatherDisplay:10.37,2013-06-24 04:31:00,
2013-06-23 23:36:00,77.2,69.4,29.94,SW,221,1.0,3.5,77,0.00,,,0.00,WeatherDisplay:10.37,2013-06-24 04:36:00,
2013-06-23 23:41:00,77.2,69.4,29.94,SW,225,1.5,4.6,77,0.00,,,0.00,WeatherDisplay:10.37,2013-06-24 04:41:00,
2013-06-23 23:46:00,77.2,69.4,29.94,SW,225,1.2,3.5,77,0.00,,,0.00,WeatherDisplay:10.37,2013-06-24 04:46:00,
2013-06-23 23:51:00,77.1,69.7,29.94,ESE,123,1.6,3.0,78,0.00,,,0.00,WeatherDisplay:10.37,2013-06-24 04:51:00,
2013-06-23 23:56:00,76.9,69.5,29.94,SSE,150,1.4,2.3,78,0.00,,,0.00,WeatherDisplay:10.37,2013-06-24 04:56:00,